Find Starlink 32797

NORAD ID: 62843 Int'l Des: 2025-019 Owner: SPXS Country: US Constellation: starlink operational
LEOCIRCULAR

Live Position

Loading 3D Globe...

About Starlink 32797

Description loading...

Upcoming Passes

Passes for default location (London). Set your location on the main map for personalized predictions.

Altitude History

Loading altitude history...

Two-Line Element Set

1 62843U 25019Q 26121.07689662 .00025240 00000-0 92299-3 0 9993
2 62843 42.9989 153.0594 0000914 226.0269 134.0507 15.27601777 70262
Epoch: May 1, 2026 • Age: 11 hours

Current Status

Altitude 495.3 km
Velocity 7.62 km/s
Sub-Earth Point -42.20°S, 0.5°E
Launch Date Jan 27, 2025
Age 1.2 years
Type internet

Technical Details

Classification Payload
Mass 730.00 kg
Dry Mass 700.00 kg
Total Mass 730.00 kg
Length 0.30 m
Diameter 4.10 m
Span 29.00 m
Shape Box + pan
Manufacturer SPXS
Bus Type Starlink V2M
Phase Status In Orbit
Owner/State SPXS/US

Most Searched